Zurück zum Katalog

DTUSAT

AktivAmateurfunkSSO
NORAD 27842·PAYLOAD·🇩🇰 Denmark

Gestartet Jun 30, 2003 von Plesetsk Cosmodrome

Loading…

Nächste Überflüge (nächste 24 Stunden)

TLE

AktuellSource: Space-Track

Epoche: Sep 14, 2026, 11:28 UTC

1 27842U 03031C   26257.47796585  .00000131  00000-0  76404-4 0  9993
2 27842  98.6884 264.8857 0008065 262.9541  97.0721 14.23963915204528

Verfolge DTUSAT in Echtzeit mit AllMySat

Download on the App Store